Flagstaff, AZ

5:02 AM MST on June 23, 2017 (GMT -0700)
Flagstaff Pulliam

Weather History for KFLG - July, 2013

Change the Weather History Date:

Saturday, July 6, 2013

  Actual Average Record
Temperature  
Mean Temperature 69 °F 65 °F  
Max Temperature 82 °F 82 °F 96 °F (1989)
Min Temperature 55 °F 49 °F 35 °F (1978)
Degree Days  
Heating Degree Days 0 1  
Month to date heating degree days 0 11  
Since 1 July heating degree days 0 11  
Cooling Degree Days 4 2  
Month to date cooling degree days 30 12  
Year to date cooling degree days 80 29  
Growing Degree Days 18 (Base 50)    
Moisture  
Dew Point 53 °F    
Average Humidity 63    
Maximum Humidity 93    
Minimum Humidity 33    
Precipitation  
Precipitation 0.49 in 0.05 in 0.55 in (1990)
Month to date precipitation 2.32 0.26  
Year to date precipitation 7.58 8.73  
Snow  
Snow 0.00 in 0.00 in 0.00 in (2002)
Month to date snowfall 0.0 0.0  
Since 1 July snowfall 0.0 0.0  
Snow Depth 0.00 in    
Sea Level Pressure  
Sea Level Pressure 29.94 in    
Wind  
Wind Speed 4 mph (NW)    
Max Wind Speed 5 mph    
Max Gust Speed 5 mph    
Visibility 10 miles    
Events Rain , Thunderstorm    
T = Trace of Precipitation, MM = Missing Value Source: NWS Daily Summary

Daily Weather History Graph

Daily Weather History Graph

Search for Another Location

Airport or City:

Trip Planner

Search our weather history database for the weather conditions in past years. The results will help you decide how hot, cold, wet, or windy it might be!

Date:

Astronomy

Jul. 06, 2013 Rise Set
Actual Time 5:18 AM MST 7:44 PM MST
Civil Twilight 4:49 AM MST 8:13 PM MST
Nautical Twilight 4:12 AM MST 8:49 PM MST
Astronomical Twilight 3:32 AM MST 9:29 PM MST
Moon 4:05 AM MST (7/6) 6:30 PM MST (7/6)
Length of Visible Light 15h 24m
Length of Day
14h 25m
Waning Crescent, 2% of the Moon is Illuminated
Jul 6
Waning Crescent
Jul 8
New
Jul 15
First Quarter
Jul 22
Full
Jul 29
Last Quarter

Hourly Weather History & Observations

Time (MST) Temp. Dew Point Humidity Pressure Visibility Wind Dir Wind Speed Gust Speed Precip Events Conditions
12:57 AM 59.0 °F 51.1 °F 75% 29.90 in 10.0 mi Calm Calm - N/A   Mostly Cloudy
1:57 AM 57.9 °F 51.1 °F 78% 29.88 in 10.0 mi Calm Calm - N/A   Clear
2:57 AM 57.9 °F 51.1 °F 78% 29.88 in 10.0 mi Calm Calm - N/A   Clear
3:57 AM 57.9 °F 52.0 °F 81% 29.87 in 10.0 mi Calm Calm - N/A   Overcast
4:57 AM 57.0 °F 51.1 °F 81% 29.87 in 10.0 mi Calm Calm - N/A   Clear
5:57 AM 57.9 °F 51.1 °F 78% 29.87 in 10.0 mi Calm Calm - N/A   Mostly Cloudy
6:57 AM 63.0 °F 53.1 °F 70% 29.88 in 10.0 mi Calm Calm - N/A   Overcast
7:57 AM 69.1 °F 50.0 °F 51% 29.89 in 10.0 mi SSW 5.8 mph - N/A   Overcast
8:55 AM 71.6 °F 51.8 °F 50% 30.23 in 10.0 mi Variable 3.5 mph - N/A   Scattered Clouds
8:57 AM 72.0 °F 52.0 °F 49% 29.88 in 10.0 mi Calm Calm - N/A   Clear
9:57 AM 73.9 °F 52.0 °F 46% 29.90 in 10.0 mi SW 6.9 mph - N/A   Clear
10:57 AM 79.0 °F 52.0 °F 39% 29.87 in 10.0 mi West 9.2 mph 17.3 mph N/A   Clear
11:57 AM 80.1 °F 48.9 °F 34% 29.85 in 10.0 mi SW 12.7 mph 21.9 mph N/A   Clear
12:57 PM 81.0 °F 48.9 °F 33% 29.85 in 10.0 mi South 9.2 mph 16.1 mph N/A   Partly Cloudy
1:57 PM 62.1 °F 55.9 °F 80% 29.95 in 8.0 mi NNW 11.5 mph - 0.11 in Rain , Thunderstorm Thunderstorms and Rain
2:27 PM 60.8 °F 55.4 °F 82% 30.22 in 8.0 mi East 10.4 mph 20.7 mph 0.21 in Rain , Thunderstorm Light Thunderstorms and Rain
2:57 PM 61.0 °F 55.9 °F 83% 29.96 in 8.0 mi East 10.4 mph - 0.24 in Rain , Thunderstorm Light Thunderstorms and Rain
3:57 PM 61.0 °F 55.9 °F 83% 29.95 in 9.0 mi North 9.2 mph - 0.14 in Rain , Thunderstorm Light Thunderstorms and Rain
4:57 PM 62.1 °F 57.0 °F 84% 29.94 in 10.0 mi Calm Calm - 0.00 in Rain , Thunderstorm Light Thunderstorms and Rain
5:05 PM 62.6 °F 57.2 °F 82% 30.21 in 10.0 mi East 3.5 mph - 0.00 in   Mostly Cloudy
5:57 PM 63.0 °F 57.0 °F 81% 29.94 in 10.0 mi North 3.5 mph - 0.00 in   Scattered Clouds
6:57 PM 64.9 °F 54.0 °F 68% 29.92 in 10.0 mi North 4.6 mph - N/A   Partly Cloudy
7:57 PM 61.0 °F 57.0 °F 87% 29.91 in 10.0 mi Calm Calm - N/A   Partly Cloudy
8:57 PM 57.9 °F 55.9 °F 93% 29.91 in 10.0 mi Calm Calm - N/A   Clear
9:57 PM 57.0 °F 55.0 °F 93% 29.92 in 9.0 mi Calm Calm - N/A   Clear
10:57 PM 55.0 °F 54.0 °F 96% 29.91 in 8.0 mi Calm Calm - N/A   Clear
11:57 PM 55.0 °F 53.1 °F 93% 29.91 in 10.0 mi Calm Calm - N/A   Clear